Cando, ND

7:32 AM CST on February 24, 2017 (GMT -0600)
Cando

Weather History for K9D7 - October, 2013

Change the Weather History Date:

Saturday, October 26, 2013

  Actual Average (KDVL) Record (KDVL)
Temperature  
Mean Temperature 36 °F -  
Max Temperature 41 °F 52 °F 77 °F (1955)
Min Temperature 32 °F 32 °F 9 °F (1976)
Degree Days  
Heating Degree Days 28    
Moisture  
Dew Point 24 °F    
Average Humidity 62    
Maximum Humidity 75    
Minimum Humidity 52    
Precipitation  
Precipitation 0.00 in - - ()
Sea Level Pressure  
Sea Level Pressure 30.05 in    
Wind  
Wind Speed 13 mph (WNW)    
Max Wind Speed 17 mph    
Max Gust Speed 25 mph    
Visibility 10 miles    
Events      
Averages and records for this station are not official NWS values.
T = Trace of Precipitation, MM = Missing Value Source: NWS Daily Summary

Daily Weather History Graph

Daily Weather History Graph

Search for Another Location

Airport or City:

Trip Planner

Search our weather history database for the weather conditions in past years. The results will help you decide how hot, cold, wet, or windy it might be!

Date:

Astronomy

Oct. 26, 2013 Rise Set
Actual Time 8:14 AM CDT 6:26 PM CDT
Civil Twilight 7:41 AM CDT 6:59 PM CDT
Nautical Twilight 7:05 AM CDT 7:35 PM CDT
Astronomical Twilight 6:28 AM CDT 8:12 PM CDT
Moon No Moon Rise 2:34 PM CDT (10/26)
Length of Visible Light 11h 17m
Length of Day
10h 12m
Waning Gibbous, 53% of the Moon is Illuminated
Oct 26
Waning Gibbous
Oct 26
Last Quarter
Nov 3
New
Nov 9
First Quarter
Nov 17
Full

Hourly Weather History & Observations

Time (CDT) Temp. Windchill Dew Point Humidity Pressure Visibility Wind Dir Wind Speed Gust Speed Precip Events Conditions
12:15 AM 33.8 °F 23.5 °F 24.8 °F 70% 30.03 in 10.0 mi NW 16.1 mph 23.0 mph N/A   Clear
12:35 AM 33.8 °F 23.9 °F 24.8 °F 70% 30.03 in 10.0 mi NW 15.0 mph - N/A   Clear
12:55 AM 33.8 °F 23.9 °F 23.0 °F 65% 30.04 in 10.0 mi NW 15.0 mph - N/A   Clear
1:15 AM 32.0 °F 22.1 °F 24.8 °F 75% 30.04 in 10.0 mi NW 13.8 mph - N/A   Scattered Clouds
1:35 AM 35.6 °F 27.1 °F 24.8 °F 65% 30.05 in 10.0 mi NW 12.7 mph - N/A   Overcast
1:55 AM 35.6 °F 26.2 °F 24.8 °F 65% 30.06 in 10.0 mi NW 15.0 mph - N/A   Overcast
2:15 AM 37.4 °F 28.9 °F 23.0 °F 56% 30.06 in 10.0 mi NW 13.8 mph - N/A   Overcast
2:35 AM 37.4 °F 28.5 °F 23.0 °F 56% 30.06 in 10.0 mi NW 15.0 mph 20.7 mph N/A   Overcast
2:55 AM 37.4 °F 28.2 °F 23.0 °F 56% 30.07 in 10.0 mi NW 16.1 mph 20.7 mph N/A   Overcast
3:15 AM 37.4 °F 28.2 °F 23.0 °F 56% 30.08 in 10.0 mi NNW 16.1 mph 20.7 mph N/A   Overcast
3:35 AM 35.6 °F 25.9 °F 23.0 °F 60% 30.08 in 10.0 mi NW 16.1 mph - N/A   Overcast
3:55 AM 35.6 °F 26.6 °F 23.0 °F 60% 30.08 in 10.0 mi NW 13.8 mph - N/A   Overcast
4:15 AM 35.6 °F 27.1 °F 23.0 °F 60% 30.09 in 10.0 mi NW 12.7 mph 18.4 mph N/A   Overcast
4:35 AM 33.8 °F 23.5 °F 23.0 °F 65% 30.09 in 10.0 mi NW 16.1 mph 20.7 mph N/A   Overcast
4:55 AM 35.6 °F 25.9 °F 24.8 °F 65% 30.10 in 10.0 mi NNW 16.1 mph 21.9 mph N/A   Overcast
5:15 AM 35.6 °F 25.5 °F 24.8 °F 65% 30.10 in 10.0 mi NNW 17.3 mph 23.0 mph N/A   Overcast
5:35 AM 35.6 °F 25.9 °F 24.8 °F 65% 30.11 in 10.0 mi NNW 16.1 mph 25.3 mph N/A   Overcast
5:55 AM 35.6 °F 26.2 °F 24.8 °F 65% 30.13 in 10.0 mi NNW 15.0 mph - N/A   Overcast
6:15 AM 35.6 °F 25.5 °F 24.8 °F 65% 30.13 in 10.0 mi NNW 17.3 mph - N/A   Overcast
6:35 AM 35.6 °F 25.9 °F 24.8 °F 65% 30.14 in 10.0 mi NNW 16.1 mph 21.9 mph N/A   Overcast
6:55 AM 35.6 °F 26.2 °F 24.8 °F 65% 30.14 in 10.0 mi NNW 15.0 mph 18.4 mph N/A   Overcast
7:15 AM 35.6 °F 26.6 °F 24.8 °F 65% 30.15 in 10.0 mi NNW 13.8 mph 20.7 mph N/A   Overcast
7:35 AM 35.6 °F 26.6 °F 24.8 °F 65% 30.14 in 10.0 mi NNW 13.8 mph 19.6 mph N/A   Overcast
7:55 AM 35.6 °F 27.1 °F 24.8 °F 65% 30.15 in 10.0 mi NNW 12.7 mph 17.3 mph N/A   Overcast
8:15 AM 35.6 °F 26.6 °F 23.0 °F 60% 30.16 in 10.0 mi NNW 13.8 mph 19.6 mph N/A   Overcast
8:35 AM 35.6 °F 27.5 °F 23.0 °F 60% 30.16 in 10.0 mi North 11.5 mph 20.7 mph N/A   Overcast
8:55 AM 35.6 °F 27.1 °F 23.0 °F 60% 30.16 in 10.0 mi North 12.7 mph - N/A   Overcast
9:15 AM 35.6 °F 28.6 °F 23.0 °F 60% 30.16 in 10.0 mi North 9.2 mph 17.3 mph N/A   Overcast
9:35 AM 35.6 °F 28.6 °F 23.0 °F 60% 30.17 in 10.0 mi NNW 9.2 mph - N/A   Overcast
9:55 AM 37.4 °F 29.8 °F 23.0 °F 56% 30.18 in 10.0 mi NNW 11.5 mph 16.1 mph N/A   Overcast
10:15 AM 37.4 °F 29.3 °F 23.0 °F 56% 30.17 in 10.0 mi NNW 12.7 mph - N/A   Overcast
10:35 AM 37.4 °F 29.3 °F 23.0 °F 56% 30.18 in 10.0 mi NNW 12.7 mph - N/A   Overcast
10:55 AM 37.4 °F 29.8 °F 23.0 °F 56% 30.18 in 10.0 mi NW 11.5 mph - N/A   Overcast
11:15 AM 37.4 °F 29.3 °F 23.0 °F 56% 30.18 in 10.0 mi NW 12.7 mph - N/A   Overcast
11:35 AM 37.4 °F 30.3 °F 23.0 °F 56% 30.19 in 10.0 mi NW 10.4 mph - N/A   Mostly Cloudy
11:55 AM 39.2 °F 33.0 °F 23.0 °F 52% 30.18 in 10.0 mi NW 9.2 mph - N/A   Mostly Cloudy
12:15 PM 39.2 °F 33.6 °F 23.0 °F 52% 30.19 in 10.0 mi NW 8.1 mph - N/A   Scattered Clouds
12:35 PM 39.2 °F 33.0 °F 23.0 °F 52% 30.18 in 10.0 mi NW 9.2 mph - N/A   Mostly Cloudy
12:55 PM 39.2 °F 34.2 °F 23.0 °F 52% 30.17 in 10.0 mi West 6.9 mph - N/A   Mostly Cloudy
1:15 PM 39.2 °F 32.5 °F 23.0 °F 52% 30.16 in 10.0 mi WNW 10.4 mph 16.1 mph N/A   Mostly Cloudy
1:35 PM 39.2 °F 35.0 °F 23.0 °F 52% 30.16 in 10.0 mi West 5.8 mph - N/A   Scattered Clouds
1:55 PM 41.0 °F 33.9 °F 24.8 °F 53% 30.14 in 10.0 mi WNW 12.7 mph 16.1 mph N/A   Scattered Clouds
2:15 PM 41.0 °F 34.7 °F 24.8 °F 53% 30.13 in 10.0 mi WSW 10.4 mph - N/A   Scattered Clouds
2:35 PM 39.2 °F 32.0 °F 24.8 °F 56% 30.11 in 10.0 mi SW 11.5 mph - N/A   Partly Cloudy
2:55 PM 41.0 °F 33.9 °F 24.8 °F 53% 30.11 in 10.0 mi West 12.7 mph - N/A   Clear
3:15 PM 41.0 °F 34.3 °F 24.8 °F 53% 30.10 in 10.0 mi West 11.5 mph 16.1 mph N/A   Clear
3:35 PM 39.2 °F 33.0 °F 24.8 °F 56% 30.09 in 10.0 mi WSW 9.2 mph - N/A   Clear
3:55 PM 39.2 °F 31.6 °F 24.8 °F 56% 30.08 in 10.0 mi WNW 12.7 mph - N/A   Clear
4:15 PM 41.0 °F 34.3 °F 24.8 °F 53% 30.07 in 10.0 mi WSW 11.5 mph - N/A   Clear
4:35 PM 39.2 °F 31.6 °F 24.8 °F 56% 30.06 in 10.0 mi WSW 12.7 mph - N/A   Clear
4:55 PM 41.0 °F 34.7 °F 24.8 °F 53% 30.04 in 10.0 mi West 10.4 mph - N/A   Clear
5:15 PM 39.2 °F 31.6 °F 24.8 °F 56% 30.03 in 10.0 mi WSW 12.7 mph - N/A   Clear
5:35 PM 39.2 °F 32.0 °F 24.8 °F 56% 30.03 in 10.0 mi West 11.5 mph - N/A   Partly Cloudy
5:55 PM 39.2 °F 33.0 °F 24.8 °F 56% 30.01 in 10.0 mi WSW 9.2 mph - N/A   Partly Cloudy
6:15 PM 37.4 °F 32.1 °F 24.8 °F 60% 30.00 in 10.0 mi WSW 6.9 mph - N/A   Clear
6:35 PM 35.6 °F 29.2 °F 24.8 °F 65% 29.99 in 10.0 mi SW 8.1 mph - N/A   Clear
6:55 PM 32.0 °F 24.2 °F 24.8 °F 75% 29.97 in 10.0 mi SW 9.2 mph - N/A   Clear
7:15 PM 33.8 °F 25.8 °F 24.8 °F 70% 29.95 in 10.0 mi SW 10.4 mph - N/A   Clear
7:35 PM 33.8 °F 26.4 °F 24.8 °F 70% 29.94 in 10.0 mi SSW 9.2 mph - N/A   Clear
7:55 PM 33.8 °F 26.4 °F 24.8 °F 70% 29.93 in 10.0 mi SSW 9.2 mph - N/A   Mostly Cloudy
8:15 PM 33.8 °F 25.8 °F 26.6 °F 75% 29.91 in 10.0 mi SSW 10.4 mph - N/A   Scattered Clouds
8:35 PM 33.8 °F 25.8 °F 26.6 °F 75% 29.90 in 10.0 mi SSW 10.4 mph - N/A   Scattered Clouds
8:55 PM 35.6 °F 29.2 °F 26.6 °F 70% 29.88 in 10.0 mi SSW 8.1 mph - N/A   Mostly Cloudy
9:15 PM 35.6 °F 28.6 °F 26.6 °F 70% 29.86 in 10.0 mi SSW 9.2 mph - N/A   Partly Cloudy
9:35 PM 35.6 °F 28.6 °F 26.6 °F 70% 29.85 in 10.0 mi SSW 9.2 mph - N/A   Clear
9:55 PM 35.6 °F 28.6 °F 26.6 °F 70% 29.83 in 10.0 mi SSW 9.2 mph - N/A   Clear
10:15 PM 35.6 °F 28.0 °F 26.6 °F 70% 29.82 in 10.0 mi SW 10.4 mph - N/A   Clear
10:35 PM 37.4 °F 29.8 °F 26.6 °F 65% 29.81 in 10.0 mi SW 11.5 mph - N/A   Clear
10:55 PM 35.6 °F 28.0 °F 26.6 °F 70% 29.80 in 10.0 mi SW 10.4 mph - N/A   Clear
11:15 PM 35.6 °F 28.6 °F 26.6 °F 70% 29.78 in 10.0 mi SW 9.2 mph - N/A   Clear
11:35 PM 35.6 °F 29.2 °F 26.6 °F 70% 29.77 in 10.0 mi SW 8.1 mph - N/A   Clear
11:55 PM 33.8 °F 27.7 °F 26.6 °F 75% 29.76 in 10.0 mi SW 6.9 mph - N/A   Clear